Tacoma Narrows, WA

8:55 AM PDT on May 23, 2017 (GMT -0700)
Tacoma Narrows

Weather History for KTIW - July, 2013

Change the Weather History Date:

Saturday, July 6, 2013

  Actual Average Record
Temperature  
Mean Temperature 64 °F -  
Max Temperature 75 °F 71 °F 84 °F (2014)
Min Temperature 53 °F 52 °F 50 °F (2001)
Degree Days  
Heating Degree Days 1    
Growing Degree Days 14 (Base 50)    
Moisture  
Dew Point 52 °F    
Average Humidity 73    
Maximum Humidity 94    
Minimum Humidity 41    
Precipitation  
Precipitation 0.00 in - - ()
Sea Level Pressure  
Sea Level Pressure 29.96 in    
Wind  
Wind Speed 3 mph (SSW)    
Max Wind Speed 8 mph    
Max Gust Speed -    
Visibility 9 miles    
Events      
Averages and records for this station are not official NWS values.
T = Trace of Precipitation, MM = Missing Value Source: NWS Daily Summary

Daily Weather History Graph

Daily Weather History Graph

Search for Another Location

Airport or City:

Trip Planner

Search our weather history database for the weather conditions in past years. The results will help you decide how hot, cold, wet, or windy it might be!

Date:

Astronomy

Jul. 06, 2013 Rise Set
Actual Time 5:21 AM PDT 9:08 PM PDT
Civil Twilight 4:42 AM PDT 9:47 PM PDT
Nautical Twilight 3:48 AM PDT 10:40 PM PDT
Astronomical Twilight 2:31 AM PDT 11:57 PM PDT
Moon 4:15 AM PDT (7/6) 7:49 PM PDT (7/6)
Length of Visible Light 17h 05m
Length of Day
15h 46m
Waning Crescent, 2% of the Moon is Illuminated
Jul 6
Waning Crescent
Jul 8
New
Jul 15
First Quarter
Jul 22
Full
Jul 29
Last Quarter

Hourly Weather History & Observations

Time (PDT) Temp. Dew Point Humidity Pressure Visibility Wind Dir Wind Speed Gust Speed Precip Events Conditions
12:53 AM 57.0 °F 51.1 °F 81% 29.99 in 10.0 mi SW 3.5 mph - N/A   Clear
1:53 AM 55.9 °F 51.1 °F 84% 29.99 in 10.0 mi SSW 3.5 mph - N/A   Clear
2:29 AM 55.4 °F 51.8 °F 88% 30.00 in 10.0 mi Calm Calm - N/A   Mostly Cloudy
2:53 AM 55.9 °F 51.1 °F 84% 29.99 in 10.0 mi SW 3.5 mph - N/A   Overcast
3:14 AM 55.4 °F 51.8 °F 88% 29.99 in 10.0 mi West 3.5 mph - N/A   Scattered Clouds
3:53 AM 55.0 °F 51.1 °F 86% 29.98 in 10.0 mi Calm Calm - N/A   Clear
4:25 AM 55.4 °F 51.8 °F 88% 29.99 in 10.0 mi Calm Calm - N/A   Scattered Clouds
4:51 AM 53.6 °F 51.8 °F 94% 29.99 in 10.0 mi Calm Calm - N/A   Mostly Cloudy
4:53 AM 54.0 °F 51.1 °F 90% 29.99 in 10.0 mi Variable 3.5 mph - N/A   Mostly Cloudy
5:44 AM 55.4 °F 51.8 °F 88% 29.99 in 10.0 mi Calm Calm - N/A   Overcast
5:53 AM 54.0 °F 52.0 °F 93% 29.99 in 10.0 mi Calm Calm - N/A   Overcast
6:53 AM 54.0 °F 52.0 °F 93% 29.99 in 10.0 mi SSE 3.5 mph - N/A   Overcast
7:53 AM 55.0 °F 53.1 °F 93% 30.00 in 1.0 mi SSE 3.5 mph - N/A   Overcast
8:53 AM 55.9 °F 53.1 °F 90% 30.00 in 1.0 mi Calm Calm - N/A   Overcast
9:28 AM 57.2 °F 53.6 °F 88% 30.00 in 2.0 mi Calm Calm - N/A   Haze
9:53 AM 59.0 °F 53.1 °F 81% 29.99 in 3.0 mi Calm Calm - N/A   Haze
10:53 AM 64.0 °F 54.0 °F 70% 29.98 in 10.0 mi Calm Calm - N/A   Scattered Clouds
11:53 AM 64.9 °F 53.1 °F 65% 29.97 in 10.0 mi Variable 3.5 mph - N/A   Scattered Clouds
12:53 PM 68.0 °F 54.0 °F 61% 29.96 in 10.0 mi SW 8.1 mph - N/A   Scattered Clouds
1:53 PM 72.0 °F 53.1 °F 51% 29.95 in 10.0 mi WSW 5.8 mph - N/A   Clear
2:53 PM 72.0 °F 54.0 °F 53% 29.93 in 10.0 mi SSE 5.8 mph - N/A   Scattered Clouds
3:53 PM 72.0 °F 54.0 °F 53% 29.92 in 10.0 mi SE 6.9 mph - N/A   Scattered Clouds
4:53 PM 73.9 °F 54.0 °F 50% 29.90 in 10.0 mi SSE 6.9 mph - N/A   Clear
5:53 PM 73.9 °F 54.0 °F 50% 29.89 in 10.0 mi Variable 3.5 mph - N/A   Scattered Clouds
6:53 PM 75.0 °F 51.1 °F 43% 29.88 in 10.0 mi NE 3.5 mph - N/A   Scattered Clouds
7:53 PM 73.9 °F 48.9 °F 41% 29.88 in 10.0 mi NNE 3.5 mph - N/A   Clear
8:53 PM 71.1 °F 48.9 °F 45% 29.88 in 10.0 mi Calm Calm - N/A   Clear
9:53 PM 68.0 °F 52.0 °F 56% 29.90 in 10.0 mi Calm Calm - N/A   Clear
10:53 PM 68.0 °F 54.0 °F 61% 29.91 in 10.0 mi West 5.8 mph - N/A   Clear
11:53 PM 64.0 °F 54.0 °F 70% 29.91 in 10.0 mi West 4.6 mph - N/A   Clear